Location: *
(46.1833°N, 22.7667°E)
Time: 15:42:46
(UTC+00:00)

ADEOS Rocket - Pass Details

Date: 17 September 2019
Orbit: 859 x 1306 km, 98.7° (Epoch: 13 October)

Event Time Altitude Azimuth Distance (km) Brightness Sun altitude
Rises 17:31:18 0° 21° (NNE) 4,047 6.2 -10.1°
Reaches altitude 10° 17:34:09 10° 31° (NNE) 3,141 5.5 -10.5°
Maximum altitude 17:40:41 34° 94° (E) 1,942 4.1 -11.6°
Drops below altitude 10° 17:47:32 10° 157° (SSE) 3,303 5.4 -12.8°
Sets 17:50:35 0° 166° (SSE) 4,281 6.0 -13.3°
